This is the latest recevied weather packets stored in our database for station/object iz1wiy-3. If no packets are shown the sender has not sent any weather packets the latest 1 day(s).
| Time | Temp. | Humidity | Pressure | Rain* | Wind** | Luminosity | Snow |
|---|---|---|---|---|---|---|---|
| 1778032263 | 15° C | 91% | 1010.2 hPa | 4.32 mm | - | - | - |
| 1778032023 | 15° C | 91% | 1010.4 hPa | 3.3 mm | - | - | - |
| 1778031663 | 15° C | 91% | 1010.2 hPa | 3.05 mm | - | - | - |
| 1778031483 | 15.56° C | 91% | 1010.2 hPa | 2.54 mm | - | - | - |
| 1778030883 | 15.56° C | 91% | 1010.5 hPa | 1.78 mm | - | - | - |
| 1778030763 | 15.56° C | 91% | 1010.5 hPa | 1.52 mm | - | - | - |
| 1778029983 | 15.56° C | 91% | 1010.5 hPa | 0.25 mm | - | - | - |
| 1778029923 | 15.56° C | 91% | 1010.5 hPa | 0.25 mm | - | - | - |
| 1778029863 | 15.56° C | 91% | 1010.5 hPa | 0.25 mm | - | - | - |
| 1778029683 | 15.56° C | 91% | 1010.5 hPa | 0.25 mm | - | - | - |
| 1778029444 | 15.56° C | 91% | 1010.6 hPa | 0.25 mm | - | - | - |
| 1778029083 | 15.56° C | 91% | 1010.5 hPa | 0.25 mm | - | - | - |
| 1778028783 | 15.56° C | 91% | 1010.5 hPa | 0.51 mm | - | - | - |
| 1778028723 | 15.56° C | 91% | 1010.5 hPa | 0.51 mm | - | - | - |
| 1778028663 | 15.56° C | 90% | 1010.5 hPa | 0.51 mm | - | - | - |
| 1778028184 | 16.11° C | 90% | 1010.7 hPa | 0.51 mm | - | - | - |
| 1778027883 | 16.11° C | 90% | 1010.9 hPa | 0.51 mm | - | - | - |
| 1778027823 | 16.11° C | 90% | 1011 hPa | 0.51 mm | - | - | - |
| 1778027225 | 16.11° C | 90% | 1010.9 hPa | 0.76 mm | - | - | - |
| 1778026984 | 16.11° C | 89% | 1010.9 hPa | 0.76 mm | - | - | - |
| 1778025664 | 16.67° C | 89% | 1010.9 hPa | 1.02 mm | - | - | - |
| 1778023084 | 15.56° C | 90% | 1011.3 hPa | 0.25 mm | - | - | - |
| 1778021824 | 15.56° C | 89% | 1011.9 hPa | 0 mm | - | - | - |
| 1778021764 | 15.56° C | 89% | 1012 hPa | 0 mm | - | - | - |
* Rain latest hour (hover to see other rain measurements)
** Current wind speed in m/s (hover to see current wind gust speed)